Location: Unspecified
(51.0950°N, 12.9690°E)
Time: 10:38:40
(UTC+00:00)

ATLAS 3B R/B - Pass Details

Date: 24 May 2022
Orbit: 976 x 1218 km, 63.8° (Epoch: 20 June)

Event Time Altitude Azimuth Distance (km) Brightness Sun altitude
Rises 20:41:26 0° 315° (NW) 3,916 7.5 -11.4°
Reaches altitude 10° 20:44:04 10° 317° (NW) 2,991 6.5 -11.6°
Maximum altitude 20:51:14 71° 42° (NE) 1,226 3.1 -12.2°
Enters shadow 20:58:05 13° 125° (SE) 2,897 4.4 -12.8°
